Showing default

LEGION 5, 62900

Orbit data source: Space-Track

LEGION 5, 62900 is a payload satellite owned by Maxar Intel (US) in LEO that was launched on Tue, 04 Feb 2025 UTC via an FALCON 9 launch vehicle from the Air Force Eastern Test Range (AFETR). Payload-class satellites include a variety of spacecraft equipped with specific instruments for various scientific and technological missions. These include communications satellites like Starlink; space stations such as the ISS; scientific satellites like the Hubble; Earth observation satellites from companies like Planet Labs, Umbra, and HawkEye 360; GPS; miniature CubeSats for education and research; and military/defense satellites.

Loading next visibility...
Identifier
62900, 2025-025A
Orbit
LEO
Last TLE update
10 hours ago
Origin
Manufacturer
Maxar Space Inf
Mission
Operational Commercial Imaging
Bus & Motor
LEGION, Unknown motor
Mass
~700 kg wet, 630 kg dry
Launch date (UTC)
2025-02-04 (3 months ago)
Launch vehicle
FALCON 9
Launch site
Air Force Eastern Test Range (AFETR)
Object type
Payload
Rocket body
Debris
Shape & HBR
Box + 1 Pan, 5 m
Radar Cross Section
9.079 m², Large (>1 m²)

Expand to show TLE details & history

TLE from 10 hours ago
0 LEGION 5
1 62900U 25025A   25128.86760033  .00000411  00000-0  12467-3 0  9991
2 62900  45.0469 275.6976 0007156 234.3687 125.6503 14.57063711 13552
Epoch: 2025-05-08T20:49Z
Definitive object data (Epoch: 2025-05-08T20:49:20.668Z)
Latitude
-0.00004°
Longitude
96.42951°
Altitude
705.63 km
Speed
7.503 km/s
True Right ascension
18h 22m 47s
True Declination
0° 00' 00"
Sunlit
Object was in full shadow at TLE epoch
Visualization TLE readout
Latitude
45.12023°
Longitude
-179.96581°
Altitude
710.907 km
Speed
7.504 km/s
Apparent Right ascension
01h 34m 41s
Apparent Declination
5° 53' 41"
Sunlit
Object is in daylight
Visualization observer readout
Local Sidereal Time
15:14:31
Azimuth
32.558° NE
Elevation
-38.739°
Doppler factor
1
Orbital elements
Apogee altitude
709.291 km
Perigee altitude
699.155 km
Semi-major axis
7,082.36 km
Eccentricity
0.0007156
Inclination
45.0469°
RAAN
275.6976°
Arg. of periapsis
234.3687°
True anomaly
125.7169°
Mean anomaly
125.6503°
Eccentric anomaly
125.6836°
Mean motion
3.64147 °/min
BSTAR
0.00012467
Orbital period
98.86 mins
Loading maneuver chart data...
Loading SW <> Apogee altitude chart data...
Loading historical data...
Loading historical data...
Loading historical data...
Loading historical data...
Loading historical data...
Loading historical data...
Loading historical data...
Other satellites on launch #25 in the year 2025 (2025-02-04 UTC)

LEGION 5 Visibility forecast

Observer location: undefined°, undefined°

Span
Click to sort rows by Start time (UTC) header in descending order
Start Az.
Max El. time (UTC)
Max El. Az.
Max El.
End time (UTC)
End Az.
6 mins2025-05-09 11:47:35.361Z180.576° SSW2025-05-09 11:50:35.361Z138.91° SSE19.979°2025-05-09 11:53:35.361Z96.496° ESE
8 mins2025-05-09 13:30:35.361Z239.227° WSW2025-05-09 13:33:35.361Z208.691° SW44.064°2025-05-09 13:38:35.361Z67.618° E
8 mins2025-05-09 15:14:35.361Z283.663° WNW2025-05-09 15:17:35.361Z336.152° NNW36.676°2025-05-09 15:22:35.361Z67.269° ENE
8 mins2025-05-09 16:58:35.361Z298.223° NW2025-05-09 17:02:35.361Z26.037° NE39.081°2025-05-09 17:06:35.361Z88.69° E
8 mins2025-05-09 18:42:35.361Z285.875° WNW2025-05-09 18:46:35.361Z187.562° SSW40.37°2025-05-09 18:50:35.361Z132.634° SE
|